Regional Weather Roundup
Issued by NWS

Home | Current Version | Previous Version | Graphics & Text | Print | Product List | Glossary On
Versions: 1 2 3 4 5 6 7 8 9 10 11 12 13 14 15 16 17 18 19 20 21 22 23 24 25 26 27 28 29 30 31 32 33 34 35 36 37 38 39 40 41 42 43 44 45 46 47 48 49 50
000
ASUS45 KCYS 242110
RWRWY

WYOMING REGIONAL WEATHER ROUNDUP
NATIONAL WEATHER SERVICE CHEYENNE WY
300 PM MDT MON APR 24 2017

NOTE:  "FAIR" INDICATES FEW OR NO CLOUDS BELOW 12,000 FEET
WITH NO SIGNIFICANT WEATHER AND/OR OBSTRUCTIONS TO VISIBILITY.

WYZ001-242200-
YELLOWSTONE NATIONAL PARK

CITY           SKY/WX    TMP DP  RH WIND       PRES   REMARKS
LK YELLOWSTONE   N/A     35  32  88 CALM      29.65F
W YELLOWSTONE  NOT AVBL

$$
WYZ002>013-054>058-071-098>099-242200-
NORTHERN WYOMING

CITY           SKY/WX    TMP DP  RH WIND       PRES   REMARKS
JACKSON        PTSUNNY   39  37  93 S6        29.64F WCI  35
CODY           CLOUDY    48  39  71 SE13      29.59S
GREYBULL       CLOUDY    61  28  28 CALM      29.51F
WORLAND        FAIR      61  36  39 VRB3      29.50F
SHERIDAN       CLOUDY    58  36  43 VRB5      29.57F
BUFFALO        LGT RAIN  55  34  45 SE6       29.60F
GILLETTE       FAIR      61  36  39 NE8       29.58F
HULETT         FAIR      55  34  44 N6        29.62S
NEWCASTLE      FAIR      59  30  33 N9G18     29.60F

$$
WYZ014>020-022>026-101>103-242200-
CENTRAL WYOMING

CITY           SKY/WX    TMP DP  RH WIND       PRES   REMARKS
BIG PINEY      LGT SNOW  34  33  96 S6        29.65F VSB 3/4 WCI  29
PINEDALE       LGT SNOW  34  34 100 SE7       29.67F WCI  28
DUBOIS         MOCLDY    45  28  53 N14G20    29.59F
LANDER         PTSUNNY   59  30  33 SW22G29   29.54F
RIVERTON       FAIR      56  29  35 S18       29.54F
CASPER         CLOUDY    53  34  48 S6        29.60F
DOUGLAS        PTSUNNY   59  29  31 W13       29.60F

$$
WYZ021-027>030-104>119-242200-
SOUTHERN WYOMING

CITY           SKY/WX    TMP DP  RH WIND       PRES   REMARKS
EVANSTON       LGT RAIN  39  37  92 SW13G23   29.70S WCI  31
KEMMERER       SNOW      34  32  93 W7        29.68S VSB 1/4 WCI  28
FORT BRIDGER   LGT RAIN  37  37 100 W13       29.72S WCI  28
ROCK SPRINGS   LGT RAIN  44  37  76 NW15      29.62F
DIXON            N/A     51  31  45 W8        29.69F
RAWLINS        PTSUNNY   51  27  39 W14G23    29.65F
SARATOGA       CLOUDY    48  32  53 W21       29.70F
LARAMIE        CLOUDY    52  23  32 W15       29.66S
CHEYENNE       LGT RAIN  49  38  65 W13       29.67R
TORRINGTON     FAIR      66  26  22 NW7       29.56F
PINE BLUFFS    CLOUDY    59  27  29 SW14G25   29.64R

$$



USA.gov is the U.S. government's official web portal to all federal, state and local government web resources and services.